Location: Blythe
(33.2930°N, 82.2020°W)
Time: 09:49:19
(UTC-04:00)

Hubble Space Telescope - Visible Passes

Search period start: 27 September 2016 00:00
Search period end: 07 October 2016 00:00
Orbit: 539 x 542 km, 28.5° (Epoch: 26 September)

Date Brightness Start Highest point End Pass type
(mag) Time Alt. Az. Time Alt. Az. Time Alt. Az.
27 Sep 2.6 05:32:28 20° SSE 05:32:28 20° SSE 05:34:24 10° SE visible
28 Sep 3.2 05:23:33 13° SSE 05:23:33 13° SSE 05:24:16 10° SSE visible
04 Oct 3.1 19:47:05 10° SSE 19:47:53 10° SSE 19:48:42 10° SE visible
04 Oct 3.5 21:25:01 10° SW 21:25:30 13° SW 21:25:30 13° SW visible
05 Oct 2.9 19:35:55 10° S 19:37:58 13° SSE 19:40:02 10° SE visible
05 Oct 3.0 21:15:00 10° SW 21:16:25 19° SW 21:16:25 19° SW visible
06 Oct 2.5 21:05:03 10° WSW 21:07:16 26° SW 21:07:16 26° SW visible
